Time,TemperatureF,DewpointF,PressureIn,WindDirection,WindDirectionDegrees,WindSpeedMPH,WindSpeedGustMPH,Humidity,HourlyPrecipIn,Conditions,Clouds,dailyrainin,SoftwareType,DateUTC
2013-04-25 00:03:00,41.0,-99.9,30.11,North,-999,-999.0,-999.0,-999,-99.99,,,-99.99,,2013-04-25 04:03:00,
2013-04-25 00:13:00,41.0,-99.9,30.11,North,-999,-999.0,-999.0,-999,-99.99,,,-99.99,,2013-04-25 04:13:00,
2013-04-25 00:23:00,42.0,-99.9,30.13,North,-999,-999.0,-999.0,-999,-99.99,,,-99.99,,2013-04-25 04:23:00,
2013-04-25 00:33:00,42.0,-99.9,30.13,North,-999,-999.0,-999.0,-999,-99.99,,,-99.99,,2013-04-25 04:33:00,
2013-04-25 00:43:00,42.0,-99.9,30.13,North,-999,-999.0,-999.0,-999,-99.99,,,-99.99,,2013-04-25 04:43:00,
2013-04-25 00:52:00,42.0,-99.9,30.13,North,-999,-999.0,-999.0,-999,-99.99,,,-99.99,,2013-04-25 04:52:00,
2013-04-25 01:03:00,39.0,-99.9,30.13,North,-999,-999.0,-999.0,-999,-99.99,,,-99.99,,2013-04-25 05:03:00,
2013-04-25 01:12:00,39.0,-99.9,30.13,North,-999,-999.0,-999.0,-999,-99.99,,,-99.99,,2013-04-25 05:12:00,
2013-04-25 01:22:00,37.0,-99.9,30.14,North,-999,-999.0,-999.0,-999,-99.99,,,-99.99,,2013-04-25 05:22:00,
2013-04-25 01:32:00,37.0,-99.9,30.14,North,-999,-999.0,-999.0,-999,-99.99,,,-99.99,,2013-04-25 05:32:00,
2013-04-25 01:43:00,37.0,-99.9,30.14,North,-999,-999.0,-999.0,-999,-99.99,,,-99.99,,2013-04-25 05:43:00,
2013-04-25 01:52:00,37.0,-99.9,30.14,North,-999,-999.0,-999.0,-999,-99.99,,,-99.99,,2013-04-25 05:52:00,
2013-04-25 02:02:00,37.0,-99.9,30.14,North,-999,-999.0,-999.0,-999,-99.99,,,-99.99,,2013-04-25 06:02:00,
2013-04-25 02:12:00,37.0,-99.9,30.14,North,-999,-999.0,-999.0,-999,-99.99,,,-99.99,,2013-04-25 06:12:00,
2013-04-25 02:22:00,38.0,-99.9,30.14,North,-999,-999.0,-999.0,-999,-99.99,,,-99.99,,2013-04-25 06:22:00,
2013-04-25 02:31:00,41.0,-99.9,30.13,North,-999,-999.0,-999.0,-999,-99.99,,,-99.99,,2013-04-25 06:31:00,
2013-04-25 02:32:00,38.0,-99.9,30.14,North,-999,-999.0,-999.0,-999,-99.99,,,-99.99,,2013-04-25 06:32:00,
2013-04-25 02:42:00,38.0,-99.9,30.14,North,-999,-999.0,-999.0,-999,-99.99,,,-99.99,,2013-04-25 06:42:00,
2013-04-25 02:52:00,38.0,-99.9,30.14,North,-999,-999.0,-999.0,-999,-99.99,,,-99.99,,2013-04-25 06:52:00,
2013-04-25 03:02:00,41.0,-99.9,30.13,North,-999,-999.0,-999.0,-999,-99.99,,,-99.99,,2013-04-25 07:02:00,
2013-04-25 03:12:00,41.0,-99.9,30.13,North,-999,-999.0,-999.0,-999,-99.99,,,-99.99,,2013-04-25 07:12:00,
2013-04-25 03:22:00,41.0,-99.9,30.13,North,-999,-999.0,-999.0,-999,-99.99,,,-99.99,,2013-04-25 07:22:00,
2013-04-25 03:53:00,37.0,-99.9,30.14,North,-999,-999.0,-999.0,-999,-99.99,,,-99.99,,2013-04-25 07:53:00,
2013-04-25 04:02:00,37.0,-99.9,30.14,North,-999,-999.0,-999.0,-999,-99.99,,,-99.99,,2013-04-25 08:02:00,
2013-04-25 04:11:00,37.0,-99.9,30.14,North,-999,-999.0,-999.0,-999,-99.99,,,-99.99,,2013-04-25 08:11:00,
2013-04-25 04:22:00,37.0,-99.9,30.15,North,-999,-999.0,-999.0,-999,-99.99,,,-99.99,,2013-04-25 08:22:00,
2013-04-25 04:32:00,37.0,-99.9,30.15,North,-999,-999.0,-999.0,-999,-99.99,,,-99.99,,2013-04-25 08:32:00,
2013-04-25 04:42:00,37.0,-99.9,30.15,North,-999,-999.0,-999.0,-999,-99.99,,,-99.99,,2013-04-25 08:42:00,
2013-04-25 04:52:00,37.0,-99.9,30.15,North,-999,-999.0,-999.0,-999,-99.99,,,-99.99,,2013-04-25 08:52:00,
2013-04-25 05:01:00,36.0,-99.9,30.15,North,-999,-999.0,-999.0,-999,-99.99,,,-99.99,,2013-04-25 09:01:00,
2013-04-25 05:11:00,36.0,-99.9,30.15,North,-999,-999.0,-999.0,-999,-99.99,,,-99.99,,2013-04-25 09:11:00,
2013-04-25 05:22:00,36.0,-99.9,30.16,North,-999,-999.0,-999.0,-999,-99.99,,,-99.99,,2013-04-25 09:22:00,
2013-04-25 05:33:00,36.0,-99.9,30.16,North,-999,-999.0,-999.0,-999,-99.99,,,-99.99,,2013-04-25 09:33:00,
2013-04-25 05:42:00,36.0,-99.9,30.16,North,-999,-999.0,-999.0,-999,-99.99,,,-99.99,,2013-04-25 09:42:00,
2013-04-25 05:53:00,36.0,-99.9,30.16,North,-999,-999.0,-999.0,-999,-99.99,,,-99.99,,2013-04-25 09:53:00,
2013-04-25 06:03:00,36.0,-99.9,30.16,North,-999,-999.0,-999.0,-999,-99.99,,,-99.99,,2013-04-25 10:03:00,
2013-04-25 06:12:00,36.0,-99.9,30.16,North,-999,-999.0,-999.0,-999,-99.99,,,-99.99,,2013-04-25 10:12:00,
2013-04-25 06:22:00,36.0,-99.9,30.18,North,-999,-999.0,-999.0,-999,-99.99,,,-99.99,,2013-04-25 10:22:00,
2013-04-25 06:33:00,36.0,-99.9,30.18,North,-999,-999.0,-999.0,-999,-99.99,,,-99.99,,2013-04-25 10:33:00,
2013-04-25 06:42:00,36.0,-99.9,30.18,North,-999,-999.0,-999.0,-999,-99.99,,,-99.99,,2013-04-25 10:42:00,
2013-04-25 06:53:00,36.0,-99.9,30.18,North,-999,-999.0,-999.0,-999,-99.99,,,-99.99,,2013-04-25 10:53:00,
2013-04-25 07:00:00,36.0,-99.9,30.19,North,-999,-999.0,-999.0,-999,-99.99,,,-99.99,,2013-04-25 11:00:00,
2013-04-25 07:03:00,36.0,-99.9,30.18,North,-999,-999.0,-999.0,-999,-99.99,,,-99.99,,2013-04-25 11:03:00,
2013-04-25 07:12:00,36.0,-99.9,30.18,North,-999,-999.0,-999.0,-999,-99.99,,,-99.99,,2013-04-25 11:12:00,
2013-04-25 07:22:00,36.0,-99.9,30.19,North,-999,-999.0,-999.0,-999,-99.99,,,-99.99,,2013-04-25 11:22:00,
2013-04-25 07:33:00,36.0,-99.9,30.19,North,-999,-999.0,-999.0,-999,-99.99,,,-99.99,,2013-04-25 11:33:00,
2013-04-25 07:42:00,36.0,-99.9,30.19,North,-999,-999.0,-999.0,-999,-99.99,,,-99.99,,2013-04-25 11:42:00,
2013-04-25 07:52:00,36.0,-99.9,30.19,North,-999,-999.0,-999.0,-999,-99.99,,,-99.99,,2013-04-25 11:52:00,
2013-04-25 08:12:00,36.0,-99.9,30.20,North,-999,-999.0,-999.0,-999,-99.99,,,-99.99,,2013-04-25 12:12:00,
2013-04-25 08:22:00,37.0,-99.9,30.20,North,-999,-999.0,-999.0,-999,-99.99,,,-99.99,,2013-04-25 12:22:00,
2013-04-25 08:32:00,37.0,-99.9,30.20,North,-999,-999.0,-999.0,-999,-99.99,,,-99.99,,2013-04-25 12:32:00,
2013-04-25 08:42:00,37.0,-99.9,30.20,North,-999,-999.0,-999.0,-999,-99.99,,,-99.99,,2013-04-25 12:42:00,
2013-04-25 08:52:00,39.0,-99.9,30.21,North,-999,-999.0,-999.0,-999,-99.99,,,-99.99,,2013-04-25 12:52:00,
2013-04-25 09:02:00,39.0,-99.9,30.21,North,-999,-999.0,-999.0,-999,-99.99,,,-99.99,,2013-04-25 13:02:00,
2013-04-25 09:11:00,39.0,-99.9,30.21,North,-999,-999.0,-999.0,-999,-99.99,,,-99.99,,2013-04-25 13:11:00,
2013-04-25 09:21:00,41.0,-99.9,30.22,North,-999,-999.0,-999.0,-999,-99.99,,,-99.99,,2013-04-25 13:21:00,
2013-04-25 09:32:00,41.0,-99.9,30.22,North,-999,-999.0,-999.0,-999,-99.99,,,-99.99,,2013-04-25 13:32:00,
2013-04-25 09:42:00,41.0,-99.9,30.22,North,-999,-999.0,-999.0,-999,-99.99,,,-99.99,,2013-04-25 13:42:00,
2013-04-25 09:53:00,42.0,-99.9,30.20,North,-999,-999.0,-999.0,-999,-99.99,,,-99.99,,2013-04-25 13:53:00,
2013-04-25 10:02:00,42.0,-99.9,30.20,North,-999,-999.0,-999.0,-999,-99.99,,,-99.99,,2013-04-25 14:02:00,
2013-04-25 10:11:00,42.0,-99.9,30.20,North,-999,-999.0,-999.0,-999,-99.99,,,-99.99,,2013-04-25 14:11:00,
2013-04-25 10:22:00,44.0,-99.9,30.29,North,-999,-999.0,-999.0,-999,-99.99,,,-99.99,,2013-04-25 14:22:00,
2013-04-25 10:32:00,44.0,-99.9,30.29,North,-999,-999.0,-999.0,-999,-99.99,,,-99.99,,2013-04-25 14:32:00,
2013-04-25 10:42:00,44.0,-99.9,30.29,North,-999,-999.0,-999.0,-999,-99.99,,,-99.99,,2013-04-25 14:42:00,
2013-04-25 10:52:00,45.0,-99.9,30.21,North,-999,-999.0,-999.0,-999,-99.99,,,-99.99,,2013-04-25 14:52:00,
2013-04-25 11:02:00,45.0,-99.9,30.21,North,-999,-999.0,-999.0,-999,-99.99,,,-99.99,,2013-04-25 15:02:00,
2013-04-25 11:11:00,45.0,-99.9,30.21,North,-999,-999.0,-999.0,-999,-99.99,,,-99.99,,2013-04-25 15:11:00,
2013-04-25 11:22:00,46.0,-99.9,30.21,North,-999,-999.0,-999.0,-999,-99.99,,,-99.99,,2013-04-25 15:22:00,
2013-04-25 11:33:00,46.0,-99.9,30.21,North,-999,-999.0,-999.0,-999,-99.99,,,-99.99,,2013-04-25 15:33:00,
2013-04-25 11:42:00,46.0,-99.9,30.21,North,-999,-999.0,-999.0,-999,-99.99,,,-99.99,,2013-04-25 15:42:00,
2013-04-25 11:53:00,47.0,-99.9,30.20,North,-999,-999.0,-999.0,-999,-99.99,,,-99.99,,2013-04-25 15:53:00,
2013-04-25 12:00:00,48.0,-99.9,30.20,North,-999,-999.0,-999.0,-999,-99.99,,,-99.99,,2013-04-25 16:00:00,
2013-04-25 12:03:00,47.0,-99.9,30.20,North,-999,-999.0,-999.0,-999,-99.99,,,-99.99,,2013-04-25 16:03:00,
2013-04-25 12:13:00,47.0,-99.9,30.20,North,-999,-999.0,-999.0,-999,-99.99,,,-99.99,,2013-04-25 16:13:00,
2013-04-25 12:24:00,48.0,-99.9,30.20,North,-999,-999.0,-999.0,-999,-99.99,,,-99.99,,2013-04-25 16:24:00,
2013-04-25 12:33:00,48.0,-99.9,30.20,North,-999,-999.0,-999.0,-999,-99.99,,,-99.99,,2013-04-25 16:33:00,
2013-04-25 12:43:00,48.0,-99.9,30.20,North,-999,-999.0,-999.0,-999,-99.99,,,-99.99,,2013-04-25 16:43:00,
2013-04-25 12:53:00,48.0,-99.9,30.20,North,-999,-999.0,-999.0,-999,-99.99,,,-99.99,,2013-04-25 16:53:00,
2013-04-25 13:12:00,49.0,-99.9,30.18,North,-999,-999.0,-999.0,-999,-99.99,,,-99.99,,2013-04-25 17:12:00,
2013-04-25 13:22:00,49.0,-99.9,30.18,North,-999,-999.0,-999.0,-999,-99.99,,,-99.99,,2013-04-25 17:22:00,
2013-04-25 13:32:00,49.0,-99.9,30.18,North,-999,-999.0,-999.0,-999,-99.99,,,-99.99,,2013-04-25 17:32:00,
2013-04-25 13:42:00,49.0,-99.9,30.18,North,-999,-999.0,-999.0,-999,-99.99,,,-99.99,,2013-04-25 17:42:00,
2013-04-25 13:53:00,50.0,-99.9,30.17,North,-999,-999.0,-999.0,-999,-99.99,,,-99.99,,2013-04-25 17:53:00,
2013-04-25 14:02:00,50.0,-99.9,30.17,North,-999,-999.0,-999.0,-999,-99.99,,,-99.99,,2013-04-25 18:02:00,
2013-04-25 14:11:00,50.0,-99.9,30.17,North,-999,-999.0,-999.0,-999,-99.99,,,-99.99,,2013-04-25 18:11:00,
2013-04-25 14:22:00,50.0,-99.9,30.17,North,-999,-999.0,-999.0,-999,-99.99,,,-99.99,,2013-04-25 18:22:00,
2013-04-25 14:32:00,50.0,-99.9,30.17,North,-999,-999.0,-999.0,-999,-99.99,,,-99.99,,2013-04-25 18:32:00,
2013-04-25 14:43:00,50.0,-99.9,30.17,North,-999,-999.0,-999.0,-999,-99.99,,,-99.99,,2013-04-25 18:43:00,
2013-04-25 14:53:00,51.0,-99.9,30.16,North,-999,-999.0,-999.0,-999,-99.99,,,-99.99,,2013-04-25 18:53:00,
2013-04-25 15:00:00,51.0,-99.9,30.15,North,-999,-999.0,-999.0,-999,-99.99,,,-99.99,,2013-04-25 19:00:00,
2013-04-25 15:02:00,51.0,-99.9,30.16,North,-999,-999.0,-999.0,-999,-99.99,,,-99.99,,2013-04-25 19:02:00,
2013-04-25 15:12:00,51.0,-99.9,30.16,North,-999,-999.0,-999.0,-999,-99.99,,,-99.99,,2013-04-25 19:12:00,
2013-04-25 15:21:00,51.0,-99.9,30.15,North,-999,-999.0,-999.0,-999,-99.99,,,-99.99,,2013-04-25 19:21:00,
2013-04-25 15:32:00,51.0,-99.9,30.15,North,-999,-999.0,-999.0,-999,-99.99,,,-99.99,,2013-04-25 19:32:00,
2013-04-25 15:42:00,51.0,-99.9,30.15,North,-999,-999.0,-999.0,-999,-99.99,,,-99.99,,2013-04-25 19:42:00,
2013-04-25 15:52:00,51.0,-99.9,30.15,North,-999,-999.0,-999.0,-999,-99.99,,,-99.99,,2013-04-25 19:52:00,
2013-04-25 16:12:00,46.0,-99.9,30.17,North,-999,-999.0,-999.0,-999,-99.99,,,-99.99,,2013-04-25 20:12:00,
2013-04-25 16:22:00,45.0,-99.9,30.18,North,-999,-999.0,-999.0,-999,-99.99,,,-99.99,,2013-04-25 20:22:00,
2013-04-25 16:32:00,45.0,-99.9,30.18,North,-999,-999.0,-999.0,-999,-99.99,,,-99.99,,2013-04-25 20:32:00,
2013-04-25 16:43:00,45.0,-99.9,30.18,North,-999,-999.0,-999.0,-999,-99.99,,,-99.99,,2013-04-25 20:43:00,
2013-04-25 16:52:00,44.0,-99.9,30.19,North,-999,-999.0,-999.0,-999,-99.99,,,-99.99,,2013-04-25 20:52:00,
2013-04-25 17:00:00,45.0,-99.9,30.19,North,-999,-999.0,-999.0,-999,-99.99,,,-99.99,,2013-04-25 21:00:00,
2013-04-25 17:01:00,44.0,-99.9,30.19,North,-999,-999.0,-999.0,-999,-99.99,,,-99.99,,2013-04-25 21:01:00,
2013-04-25 17:11:00,44.0,-99.9,30.19,North,-999,-999.0,-999.0,-999,-99.99,,,-99.99,,2013-04-25 21:11:00,
2013-04-25 17:22:00,45.0,-99.9,30.19,North,-999,-999.0,-999.0,-999,-99.99,,,-99.99,,2013-04-25 21:22:00,
2013-04-25 17:33:00,45.0,-99.9,30.19,North,-999,-999.0,-999.0,-999,-99.99,,,-99.99,,2013-04-25 21:33:00,
2013-04-25 17:42:00,45.0,-99.9,30.19,North,-999,-999.0,-999.0,-999,-99.99,,,-99.99,,2013-04-25 21:42:00,
2013-04-25 17:53:00,45.0,-99.9,30.19,North,-999,-999.0,-999.0,-999,-99.99,,,-99.99,,2013-04-25 21:53:00,
2013-04-25 18:22:00,45.0,-99.9,30.21,North,-999,-999.0,-999.0,-999,-99.99,,,-99.99,,2013-04-25 22:22:00,
2013-04-25 18:33:00,45.0,-99.9,30.21,North,-999,-999.0,-999.0,-999,-99.99,,,-99.99,,2013-04-25 22:33:00,
2013-04-25 18:42:00,45.0,-99.9,30.21,North,-999,-999.0,-999.0,-999,-99.99,,,-99.99,,2013-04-25 22:42:00,
2013-04-25 18:53:00,45.0,-99.9,30.21,North,-999,-999.0,-999.0,-999,-99.99,,,-99.99,,2013-04-25 22:53:00,
2013-04-25 19:00:00,43.0,-99.9,30.23,North,-999,-999.0,-999.0,-999,-99.99,,,-99.99,,2013-04-25 23:00:00,
2013-04-25 19:02:00,42.0,-99.9,30.23,North,-999,-999.0,-999.0,-999,-99.99,,,-99.99,,2013-04-25 23:02:00,
2013-04-25 19:12:00,42.0,-99.9,30.23,North,-999,-999.0,-999.0,-999,-99.99,,,-99.99,,2013-04-25 23:12:00,
2013-04-25 19:22:00,43.0,-99.9,30.23,North,-999,-999.0,-999.0,-999,-99.99,,,-99.99,,2013-04-25 23:22:00,
2013-04-25 19:32:00,43.0,-99.9,30.23,North,-999,-999.0,-999.0,-999,-99.99,,,-99.99,,2013-04-25 23:32:00,
2013-04-25 19:42:00,43.0,-99.9,30.23,North,-999,-999.0,-999.0,-999,-99.99,,,-99.99,,2013-04-25 23:42:00,
2013-04-25 19:52:00,43.0,-99.9,30.23,North,-999,-999.0,-999.0,-999,-99.99,,,-99.99,,2013-04-25 23:52:00,
2013-04-25 20:00:00,44.0,-99.9,30.25,North,-999,-999.0,-999.0,-999,-99.99,,,-99.99,,2013-04-26 00:00:00,
2013-04-25 20:22:00,44.0,-99.9,30.25,North,-999,-999.0,-999.0,-999,-99.99,,,-99.99,,2013-04-26 00:22:00,
2013-04-25 20:32:00,44.0,-99.9,30.25,North,-999,-999.0,-999.0,-999,-99.99,,,-99.99,,2013-04-26 00:32:00,
2013-04-25 20:42:00,44.0,-99.9,30.25,North,-999,-999.0,-999.0,-999,-99.99,,,-99.99,,2013-04-26 00:42:00,
2013-04-25 20:52:00,44.0,-99.9,30.25,North,-999,-999.0,-999.0,-999,-99.99,,,-99.99,,2013-04-26 00:52:00,
2013-04-25 21:00:00,44.0,-99.9,30.28,North,-999,-999.0,-999.0,-999,-99.99,,,-99.99,,2013-04-26 01:00:00,
2013-04-25 21:11:00,44.0,-99.9,30.27,North,-999,-999.0,-999.0,-999,-99.99,,,-99.99,,2013-04-26 01:11:00,
2013-04-25 21:22:00,44.0,-99.9,30.28,North,-999,-999.0,-999.0,-999,-99.99,,,-99.99,,2013-04-26 01:22:00,
2013-04-25 21:32:00,44.0,-99.9,30.28,North,-999,-999.0,-999.0,-999,-99.99,,,-99.99,,2013-04-26 01:32:00,
2013-04-25 21:42:00,44.0,-99.9,30.28,North,-999,-999.0,-999.0,-999,-99.99,,,-99.99,,2013-04-26 01:42:00,
2013-04-25 21:52:00,44.0,-99.9,30.28,North,-999,-999.0,-999.0,-999,-99.99,,,-99.99,,2013-04-26 01:52:00,
2013-04-25 22:00:00,42.0,-99.9,30.31,North,-999,-999.0,-999.0,-999,-99.99,,,-99.99,,2013-04-26 02:00:00,
2013-04-25 22:22:00,42.0,-99.9,30.30,North,-999,-999.0,-999.0,-999,-99.99,,,-99.99,,2013-04-26 02:22:00,
2013-04-25 22:32:00,42.0,-99.9,30.31,North,-999,-999.0,-999.0,-999,-99.99,,,-99.99,,2013-04-26 02:32:00,
2013-04-25 22:42:00,42.0,-99.9,30.31,North,-999,-999.0,-999.0,-999,-99.99,,,-99.99,,2013-04-26 02:42:00,
2013-04-25 22:52:00,42.0,-99.9,30.31,North,-999,-999.0,-999.0,-999,-99.99,,,-99.99,,2013-04-26 02:52:00,
2013-04-25 23:11:00,43.0,-99.9,30.32,North,-999,-999.0,-999.0,-999,-99.99,,,-99.99,,2013-04-26 03:11:00,
2013-04-25 23:22:00,42.0,-99.9,30.32,North,-999,-999.0,-999.0,-999,-99.99,,,-99.99,,2013-04-26 03:22:00,
2013-04-25 23:33:00,42.0,-99.9,30.32,North,-999,-999.0,-999.0,-999,-99.99,,,-99.99,,2013-04-26 03:33:00,
2013-04-25 23:43:00,42.0,-99.9,30.32,North,-999,-999.0,-999.0,-999,-99.99,,,-99.99,,2013-04-26 03:43:00,
2013-04-25 23:53:00,42.0,-99.9,30.32,North,-999,-999.0,-999.0,-999,-99.99,,,-99.99,,2013-04-26 03:53:00,